Weather History for East Cameron 278, LA

Change the Weather History Date:

Sunday, January 19, 2014

  Actual Average Record
Temperature  
Mean Temperature 64 °F -  
Max Temperature 68 °F - - ()
Min Temperature 59 °F - - ()
Degree Days  
Heating Degree Days 2    
Growing Degree Days 14 (Base 50)    
Moisture  
Dew Point 50 °F    
Average Humidity 65    
Maximum Humidity 88    
Minimum Humidity 34    
Precipitation  
Precipitation 0.00 in - - ()
Sea Level Pressure  
Sea Level Pressure 30.19 in    
Wind  
Wind Speed 13 mph (WNW)    
Max Wind Speed 22 mph    
Max Gust Speed 25 mph    
Visibility 10 miles    
Events      
T = Trace of Precipitation, MM = Missing Value Source: NWS Daily Summary

Daily Weather History Graph

Daily Weather History Graph

Search for Another Location

Airport:

Trip Planner

Search our weather history database for the weather conditions in past years. The results will help you decide how hot, cold, wet, or windy it might be!

Date:

Astronomy

Jan. 19, 2014 Rise Set
Actual Time 7:04 AM CST 5:40 PM CST
Civil Twilight 6:39 AM CST 6:05 PM CST
Nautical Twilight 6:10 AM CST 6:34 PM CST
Astronomical Twilight 5:42 AM CST 7:02 PM CST
Moon 8:57 PM CST (1/19) 8:53 AM CST (1/19)
Length of Visible Light 11h 26m
Length of Day
10h 36m
Waning Gibbous, 89% of the Moon is Illuminated
Jan 19
Waning Gibbous
Jan 23
Last Quarter
Jan 30
New
Feb 6
First Quarter
Feb 14
Full

Hourly Weather History & Observations

Time (CST) Temp. Dew Point Humidity Pressure Visibility Wind Dir Wind Speed Gust Speed Precip Events Conditions
12:15 AM 66.2 °F 59.0 °F 78% 30.14 in 10.0 mi SSW 20.7 mph - N/A   Partly Cloudy
12:35 AM 66.2 °F 59.0 °F 78% 30.15 in 10.0 mi SSW 18.4 mph - N/A   Clear
12:55 AM 66.2 °F 60.8 °F 83% 30.14 in 10.0 mi SW 18.4 mph - N/A   Scattered Clouds
1:15 AM 66.2 °F 60.8 °F 83% 30.14 in 10.0 mi SW 15.0 mph - N/A   Clear
1:35 AM 68.0 °F 60.8 °F 78% 30.14 in 10.0 mi SW 15.0 mph - N/A   Partly Cloudy
1:55 AM 68.0 °F 60.8 °F 78% 30.14 in 10.0 mi SW 17.3 mph - N/A   Partly Cloudy
2:15 AM 68.0 °F 60.8 °F 78% 30.14 in 10.0 mi SW 15.0 mph - N/A   Clear
2:35 AM 66.2 °F 60.8 °F 83% 30.14 in 10.0 mi WSW 15.0 mph - N/A   Scattered Clouds
2:55 AM 66.2 °F 60.8 °F 83% 30.14 in 10.0 mi West 15.0 mph - N/A   Unknown
3:15 AM 66.2 °F 59.0 °F 78% 30.14 in 10.0 mi West 18.4 mph - N/A   Unknown
3:35 AM 66.2 °F 59.0 °F 78% 30.15 in 10.0 mi West 17.3 mph - N/A   Unknown
3:55 AM 66.2 °F 60.8 °F 83% 30.15 in 10.0 mi WNW 17.3 mph - N/A   Unknown
4:15 AM 66.2 °F 59.0 °F 78% 30.16 in 10.0 mi WNW 18.4 mph - N/A   Scattered Clouds
4:35 AM 64.4 °F 60.8 °F 88% 30.16 in 10.0 mi WNW 16.1 mph - N/A   Scattered Clouds
4:55 AM 64.4 °F 59.0 °F 83% 30.16 in 10.0 mi WNW 17.3 mph - N/A   Unknown
5:15 AM 64.4 °F 59.0 °F 83% 30.16 in 10.0 mi WNW 17.3 mph - N/A   Unknown
5:35 AM 64.4 °F 59.0 °F 83% 30.17 in 10.0 mi WNW 17.3 mph - N/A   Unknown
5:55 AM 64.4 °F 59.0 °F 83% 30.18 in 10.0 mi WNW 16.1 mph - N/A   Unknown
6:15 AM 64.4 °F 59.0 °F 83% 30.19 in 10.0 mi WNW 16.1 mph - N/A   Unknown
6:35 AM 64.4 °F 59.0 °F 83% 30.19 in 10.0 mi WNW 17.3 mph - N/A   Unknown
6:55 AM 64.4 °F 59.0 °F 83% 30.20 in 9.0 mi WNW 17.3 mph - N/A   Unknown
7:15 AM 64.4 °F 59.0 °F 83% 30.20 in 9.0 mi WNW 18.4 mph - N/A   Unknown
7:35 AM 64.4 °F 59.0 °F 83% 30.21 in 9.0 mi NW 17.3 mph - N/A   Unknown
7:55 AM 64.4 °F 57.2 °F 77% 30.22 in 10.0 mi NW 21.9 mph - N/A   Unknown
8:15 AM 64.4 °F 57.2 °F 77% 30.23 in 9.0 mi NNW 18.4 mph 25.3 mph N/A   Unknown
8:35 AM 62.6 °F 57.2 °F 82% 30.24 in 7.0 mi NNW 18.4 mph - N/A   Unknown
8:55 AM 60.8 °F 55.4 °F 82% 30.24 in 6.0 mi NNW 19.6 mph - N/A   Haze
9:15 AM 59.0 °F 55.4 °F 88% 30.26 in 6.0 mi NNW 16.1 mph - N/A   Mist
9:35 AM 59.0 °F 55.4 °F 88% 30.26 in 8.0 mi North 15.0 mph - N/A   Unknown
9:55 AM 59.0 °F 53.6 °F 82% 30.27 in 7.0 mi North 17.3 mph - N/A   Unknown
10:15 AM 59.0 °F 51.8 °F 77% 30.28 in 8.0 mi North 16.1 mph - N/A   Unknown
10:35 AM 59.0 °F 51.8 °F 77% 30.27 in 9.0 mi North 15.0 mph - N/A   Unknown
10:55 AM 59.0 °F 50.0 °F 72% 30.26 in 9.0 mi NNE 16.1 mph - N/A   Partly Cloudy
11:15 AM 59.0 °F 50.0 °F 72% 30.26 in 10.0 mi NNE 15.0 mph - N/A   Partly Cloudy
11:35 AM 59.0 °F 48.2 °F 67% 30.25 in 9.0 mi NNE 12.7 mph - N/A   Partly Cloudy
11:55 AM 59.0 °F 48.2 °F 67% 30.24 in 10.0 mi NNE 11.5 mph - N/A   Unknown
12:15 PM 59.0 °F 48.2 °F 67% 30.24 in 10.0 mi NNE 9.2 mph - N/A   Unknown
12:35 PM 60.8 °F 46.4 °F 59% 30.23 in 10.0 mi NE 6.9 mph - N/A   Unknown
12:55 PM 60.8 °F 46.4 °F 59% 30.22 in 9.0 mi NE 5.8 mph - N/A   Clear
1:15 PM 62.6 °F 48.2 °F 59% 30.21 in 10.0 mi NE 4.6 mph - N/A   Clear
1:35 PM 62.6 °F 48.2 °F 59% 30.20 in 10.0 mi NE 5.8 mph - N/A   Clear
1:55 PM 62.6 °F 46.4 °F 55% 30.20 in 10.0 mi ENE 4.6 mph - N/A   Clear
2:15 PM 62.6 °F 46.4 °F 55% 30.19 in 10.0 mi NNE 5.8 mph - N/A   Clear
2:35 PM 62.6 °F 46.4 °F 55% 30.19 in 10.0 mi NE 5.8 mph - N/A   Clear
2:55 PM 62.6 °F 44.6 °F 52% 30.19 in 10.0 mi NE 4.6 mph - N/A   Clear
3:15 PM 62.6 °F 46.4 °F 55% 30.19 in 10.0 mi NNE 4.6 mph - N/A   Clear
3:35 PM 62.6 °F 46.4 °F 55% 30.19 in 10.0 mi NNE 4.6 mph - N/A   Clear
3:55 PM 62.6 °F 46.4 °F 55% 30.19 in 10.0 mi NE 4.6 mph - N/A   Clear
4:15 PM 62.6 °F 46.4 °F 55% 30.19 in 10.0 mi NE 4.6 mph - N/A   Unknown
4:35 PM 62.6 °F 46.4 °F 55% 30.19 in 10.0 mi Calm Calm - N/A   Unknown
4:55 PM 62.6 °F 46.4 °F 55% 30.19 in 10.0 mi Calm Calm - N/A   Clear
5:15 PM 60.8 °F 46.4 °F 59% 30.19 in 10.0 mi Calm Calm - N/A   Clear
5:35 PM 59.0 °F 44.6 °F 59% 30.19 in 10.0 mi Calm Calm - N/A   Clear
5:55 PM 60.8 °F 44.6 °F 55% 30.20 in 10.0 mi Calm Calm - N/A   Clear
6:15 PM 59.0 °F 42.8 °F 55% 30.20 in 10.0 mi Calm Calm - N/A   Unknown
6:35 PM 60.8 °F 44.6 °F 55% 30.20 in 10.0 mi Calm Calm - N/A   Unknown
6:55 PM 60.8 °F 42.8 °F 52% 30.20 in 10.0 mi SSW 4.6 mph - N/A   Unknown
7:15 PM 60.8 °F 42.8 °F 52% 30.20 in 10.0 mi SW 4.6 mph - N/A   Unknown
7:35 PM 60.8 °F 39.2 °F 45% 30.20 in 10.0 mi Calm Calm - N/A   Unknown
7:55 PM 60.8 °F 35.6 °F 39% 30.20 in 10.0 mi WSW 4.6 mph - N/A   Unknown
8:15 PM 60.8 °F 37.4 °F 42% 30.20 in 10.0 mi SW 4.6 mph - N/A   Unknown
8:35 PM 62.6 °F 33.8 °F 34% 30.20 in 10.0 mi WSW 5.8 mph - N/A   Unknown
8:55 PM 60.8 °F 35.6 °F 39% 30.20 in 10.0 mi SW 4.6 mph - N/A   Unknown
9:15 PM 62.6 °F 35.6 °F 37% 30.19 in 10.0 mi SSW 4.6 mph - N/A   Unknown
9:35 PM 62.6 °F 35.6 °F 37% 30.20 in 10.0 mi SW 5.8 mph - N/A   Unknown
9:55 PM 62.6 °F 35.6 °F 37% 30.19 in 10.0 mi SW 5.8 mph - N/A   Unknown
10:15 PM 62.6 °F 35.6 °F 37% 30.19 in 10.0 mi SW 5.8 mph - N/A   Unknown
10:35 PM 62.6 °F 37.4 °F 39% 30.19 in 10.0 mi SW 5.8 mph - N/A   Unknown
10:55 PM 62.6 °F 35.6 °F 37% 30.18 in 10.0 mi SW 4.6 mph - N/A   Unknown
11:15 PM 62.6 °F 37.4 °F 39% 30.18 in 10.0 mi SW 4.6 mph - N/A   Unknown
11:35 PM 62.6 °F 39.2 °F 42% 30.17 in 10.0 mi SW 5.8 mph - N/A   Unknown
11:55 PM 62.6 °F 41.0 °F 45% 30.16 in 10.0 mi SW 4.6 mph - N/A   Unknown